Simultaneous Nadir Overpasses (SNOs) Predictions

Prediction of SNOs between GOES-16 and AQUA Satellite Orbit:

Table of predicted SNOs for the next 14.0 days since TLE Epoch: 7/12/2019
Index Date Time (GOES-16) GOES-16 Lat,Lon AQUA Lat,Lon Distance(km) Time Diff (sec)
1 07/14/2019 06:29:28 -0.02, -75.20 -0.30, -73.86 152.66 80
2 07/14/2019 18:50:52 0.02, -75.20 -0.79, -79.05 437.96 80
3 07/16/2019 06:17:16 -0.02, -75.21 -0.94, -70.90 489.94 80
4 07/16/2019 18:38:40 0.02, -75.21 -0.15, -76.09 100.48 80
5 07/18/2019 18:29:07 0.01, -75.22 0.44, -73.13 237.85 80
6 07/19/2019 06:47:43 -0.02, -75.23 0.64, -78.29 347.48 80
7 07/21/2019 06:36:44 -0.01, -75.26 0.00, -75.33 8.29 7
8 07/23/2019 06:25:59 -0.01, -75.29 -0.64, -72.37 331.55 80
9 07/23/2019 18:44:42 0.01, -75.29 -0.48, -77.56 258.33 80
10 07/25/2019 18:35:10 0.01, -75.32 0.17, -74.60 82.06 80




NCC Satellite Simultaneous Nadir Overpasses (SNOs) Prediction Service
